Holdrege, NE

1:00 AM CDT on July 23, 2017 (GMT -0500)
Brewster

Weather History for KHDE - November, 2013

Change the Weather History Date:

Monday, November 11, 2013

  Actual Average Record
Temperature  
Mean Temperature 33 °F -  
Max Temperature 43 °F 47 °F 75 °F (2007)
Min Temperature 23 °F 26 °F 5 °F (1986)
Degree Days  
Heating Degree Days 32    
Moisture  
Dew Point 26 °F    
Average Humidity 79    
Maximum Humidity 96    
Minimum Humidity 58    
Precipitation  
Precipitation 0.00 in - - ()
Sea Level Pressure  
Sea Level Pressure 30.39 in    
Wind  
Wind Speed 13 mph (North)    
Max Wind Speed 26 mph    
Max Gust Speed 33 mph    
Visibility 8 miles    
Events Fog    
Averages and records for this station are not official NWS values.
T = Trace of Precipitation, MM = Missing Value Source: NWS Daily Summary

Daily Weather History Graph

Daily Weather History Graph

Search for Another Location

Airport or City:

Trip Planner

Search our weather history database for the weather conditions in past years. The results will help you decide how hot, cold, wet, or windy it might be!

Date:

Astronomy

Nov. 11, 2013 Rise Set
Actual Time 7:19 AM CST 5:23 PM CST
Civil Twilight 6:50 AM CST 5:52 PM CST
Nautical Twilight 6:17 AM CST 6:24 PM CST
Astronomical Twilight 5:45 AM CST 6:56 PM CST
Moon 2:05 PM CST (11/11) 1:04 AM CST (11/11)
Length of Visible Light 11h 01m
Length of Day
10h 03m
Waxing Gibbous, 66% of the Moon is Illuminated
Nov 11
Waxing Gibbous
Nov 17
Full
Nov 25
Last Quarter
Dec 2
New
Dec 9
First Quarter

Hourly Weather History & Observations

Time (CST) Temp. Windchill Dew Point Humidity Pressure Visibility Wind Dir Wind Speed Gust Speed Precip Events Conditions
12:15 AM 43.2 °F 39.0 °F 40.8 °F 91% 30.13 in 10.0 mi SSW 6.9 mph - N/A   Clear
12:55 AM 43.5 °F 39.4 °F 41.5 °F 93% 30.13 in 10.0 mi SW 6.9 mph - N/A   Clear
1:15 AM 43.9 °F 39.3 °F 41.9 °F 93% 30.12 in 10.0 mi SW 8.1 mph - N/A   Clear
1:55 AM 43.7 °F 41.1 °F 41.2 °F 91% 30.12 in 7.0 mi SW 4.6 mph - N/A   Clear
2:15 AM 43.3 °F 41.7 °F 41.2 °F 92% 30.12 in 7.0 mi SW 3.5 mph - N/A   Clear
2:35 AM 42.3 °F 39.4 °F 40.1 °F 92% 30.10 in 7.0 mi SSW 4.6 mph - N/A   Clear
2:55 AM 42.1 °F 37.1 °F 40.3 °F 93% 30.11 in 7.0 mi SSW 8.1 mph - N/A   Clear
3:15 AM 40.8 °F 35.6 °F 39.0 °F 93% 30.10 in 5.0 mi SW 8.1 mph - N/A   Clear
3:35 AM 40.5 °F 35.1 °F 38.8 °F 94% 30.10 in 5.0 mi SW 8.1 mph - N/A   Clear
3:55 AM 40.5 °F 37.3 °F 38.8 °F 94% 30.09 in 4.0 mi SSW 4.6 mph - N/A   Clear
4:15 AM 40.1 °F 36.9 °F 38.5 °F 94% 30.09 in 4.0 mi SW 4.6 mph - N/A   Clear
4:35 AM 39.6 °F - 38.3 °F 95% 30.11 in 3.0 mi Calm Calm - N/A   Clear
4:55 AM 38.8 °F 36.5 °F 37.4 °F 95% 30.12 in 1.2 mi WNW 3.5 mph - N/A   Mist
5:15 AM 37.0 °F 31.6 °F 35.6 °F 95% 30.13 in 0.8 mi NNW 6.9 mph - N/A   Mostly Cloudy
5:35 AM 35.4 °F - 34.2 °F 95% 30.13 in 1.2 mi Calm Calm - N/A   Mostly Cloudy
5:55 AM 34.7 °F 28.8 °F 33.4 °F 95% 30.15 in 0.2 mi NNW 6.9 mph - N/A Fog Fog
6:15 AM 38.1 °F 29.5 °F 36.9 °F 95% 30.16 in 3.0 mi NNE 15.0 mph - N/A   Overcast
6:35 AM 37.4 °F 28.9 °F 36.3 °F 96% 30.18 in 10.0 mi NNE 13.8 mph - N/A   Overcast
6:55 AM 36.5 °F 27.4 °F 35.1 °F 95% 30.20 in 10.0 mi NNE 15.0 mph 19.6 mph N/A   Mostly Cloudy
7:15 AM 35.1 °F 24.8 °F 33.1 °F 92% 30.22 in 10.0 mi North 17.3 mph - N/A   Mostly Cloudy
7:35 AM 34.3 °F 23.2 °F 32.0 °F 91% 30.25 in 10.0 mi NNE 19.6 mph 32.2 mph N/A   Overcast
7:55 AM 34.2 °F 21.5 °F 32.0 °F 92% 30.26 in 10.0 mi NNE 25.3 mph 29.9 mph N/A   Overcast
8:15 AM 33.8 °F 20.8 °F 32.0 °F 93% 30.27 in 7.0 mi NNE 26.5 mph 33.4 mph N/A   Overcast
8:35 AM 32.9 °F 20.7 °F 31.1 °F 93% 30.29 in 7.0 mi NNE 21.9 mph 32.2 mph N/A   Overcast
8:55 AM 31.8 °F 18.4 °F 30.0 °F 93% 30.31 in 3.0 mi NNE 25.3 mph 31.1 mph N/A   Overcast
9:15 AM 31.1 °F 17.4 °F 29.3 °F 93% 30.32 in 4.0 mi NNE 25.3 mph 31.1 mph N/A   Overcast
9:35 AM 30.2 °F 16.8 °F 28.8 °F 94% 30.33 in 4.0 mi NNE 23.0 mph 29.9 mph N/A   Overcast
9:55 AM 30.0 °F 16.9 °F 28.4 °F 94% 30.34 in 4.0 mi NNE 21.9 mph 27.6 mph N/A   Overcast
10:15 AM 29.3 °F 16.2 °F 27.5 °F 93% 30.36 in 5.0 mi North 20.7 mph 27.6 mph N/A   Overcast
10:35 AM 29.3 °F 16.2 °F 27.3 °F 92% 30.37 in 10.0 mi NNE 20.7 mph 31.1 mph N/A   Overcast
10:55 AM 29.7 °F 16.1 °F 27.3 °F 91% 30.37 in 10.0 mi NNE 23.0 mph 26.5 mph N/A   Overcast
11:15 AM 30.7 °F 17.8 °F 27.5 °F 88% 30.39 in 10.0 mi NNE 21.9 mph 28.8 mph N/A   Overcast
11:35 AM 31.5 °F 18.8 °F 27.1 °F 84% 30.40 in 10.0 mi North 21.9 mph 29.9 mph N/A   Overcast
11:55 AM 30.7 °F 17.5 °F 25.5 °F 81% 30.41 in 10.0 mi NNE 23.0 mph 29.9 mph N/A   Overcast
12:15 PM 30.9 °F 17.8 °F 24.3 °F 76% 30.41 in 10.0 mi NNE 23.0 mph 27.6 mph N/A   Overcast
12:35 PM 32.7 °F 21.1 °F 25.2 °F 74% 30.41 in 10.0 mi NNE 19.6 mph 27.6 mph N/A   Mostly Cloudy
12:55 PM 32.9 °F 21.0 °F 24.3 °F 71% 30.41 in 10.0 mi North 20.7 mph - N/A   Mostly Cloudy
1:15 PM 33.1 °F 21.2 °F 23.5 °F 68% 30.42 in 10.0 mi NNE 20.7 mph 31.1 mph N/A   Mostly Cloudy
1:35 PM 32.5 °F 19.6 °F 23.0 °F 68% 30.44 in 10.0 mi NNE 24.2 mph 29.9 mph N/A   Overcast
1:55 PM 33.1 °F 20.9 °F 23.5 °F 68% 30.44 in 10.0 mi North 21.9 mph - N/A   Overcast
2:15 PM 33.1 °F 20.6 °F 23.0 °F 66% 30.44 in 10.0 mi NNE 23.0 mph 29.9 mph N/A   Scattered Clouds
2:35 PM 33.3 °F 20.9 °F 22.8 °F 66% 30.44 in 10.0 mi NNE 23.0 mph 28.8 mph N/A   Clear
2:55 PM 32.9 °F 20.4 °F 22.1 °F 65% 30.46 in 10.0 mi North 23.0 mph 29.9 mph N/A   Clear
3:15 PM 32.2 °F 19.4 °F 21.9 °F 66% 30.47 in 10.0 mi NNE 23.0 mph 32.2 mph N/A   Clear
3:35 PM 32.0 °F 20.1 °F 21.9 °F 66% 30.47 in 10.0 mi North 19.6 mph 27.6 mph N/A   Clear
3:55 PM 32.0 °F 19.2 °F 21.0 °F 64% 30.48 in 10.0 mi North 23.0 mph 28.8 mph N/A   Clear
4:15 PM 31.1 °F 18.0 °F 20.3 °F 64% 30.49 in 10.0 mi North 23.0 mph 27.6 mph N/A   Clear
4:35 PM 30.6 °F 18.6 °F 20.1 °F 65% 30.51 in 10.0 mi North 18.4 mph 25.3 mph N/A   Clear
4:55 PM 28.6 °F 16.4 °F 19.0 °F 67% 30.51 in 10.0 mi North 17.3 mph 25.3 mph N/A   Clear
5:15 PM 28.4 °F 15.8 °F 19.0 °F 68% 30.53 in 10.0 mi North 18.4 mph - N/A   Clear
5:35 PM 27.9 °F 15.9 °F 18.5 °F 68% 30.54 in 10.0 mi North 16.1 mph 24.2 mph N/A   Clear
5:55 PM 27.1 °F 14.5 °F 18.0 °F 68% 30.55 in 10.0 mi North 17.3 mph - N/A   Clear
6:15 PM 26.6 °F 13.1 °F 17.4 °F 68% 30.56 in 10.0 mi North 19.6 mph 25.3 mph N/A   Scattered Clouds
6:35 PM 26.6 °F 14.3 °F 18.1 °F 70% 30.58 in 10.0 mi North 16.1 mph - N/A   Mostly Cloudy
6:55 PM 27.0 °F 13.9 °F 17.6 °F 68% 30.59 in 10.0 mi North 18.4 mph - N/A   Overcast
7:15 PM 25.7 °F 13.5 °F 17.2 °F 70% 30.60 in 10.0 mi NNE 15.0 mph - N/A   Scattered Clouds
7:35 PM 25.2 °F 14.4 °F 17.1 °F 71% 30.60 in 10.0 mi NNE 11.5 mph - N/A   Clear
7:55 PM 24.8 °F 14.0 °F 16.2 °F 70% 30.61 in 10.0 mi NNE 11.5 mph - N/A   Clear
8:15 PM 25.7 °F 12.7 °F 13.5 °F 60% 30.61 in 10.0 mi NNE 17.3 mph 23.0 mph N/A   Clear
8:35 PM 25.7 °F 14.6 °F 13.3 °F 59% 30.62 in 10.0 mi NNE 12.7 mph 18.4 mph N/A   Clear
8:55 PM 25.5 °F 12.9 °F 12.7 °F 58% 30.63 in 10.0 mi NNE 16.1 mph 21.9 mph N/A   Clear
9:15 PM 25.3 °F 14.1 °F 14.0 °F 62% 30.66 in 10.0 mi North 12.7 mph - N/A   Clear
9:35 PM 25.5 °F 13.3 °F 13.8 °F 61% 30.67 in 10.0 mi NNE 15.0 mph - N/A   Scattered Clouds
9:55 PM 25.7 °F 14.6 °F 14.0 °F 61% 30.68 in 10.0 mi NNE 12.7 mph - N/A   Mostly Cloudy
10:15 PM 25.7 °F 14.0 °F 12.9 °F 58% 30.69 in 10.0 mi North 13.8 mph - N/A   Overcast
10:35 PM 25.2 °F 13.3 °F 13.8 °F 62% 30.70 in 10.0 mi North 13.8 mph - N/A   Overcast
10:55 PM 24.6 °F 12.2 °F 11.8 °F 58% 30.72 in 10.0 mi North 15.0 mph - N/A   Overcast
11:15 PM 24.1 °F 11.5 °F 11.5 °F 59% 30.73 in 10.0 mi North 15.0 mph - N/A   Scattered Clouds
11:35 PM 23.9 °F 12.9 °F 12.0 °F 61% 30.73 in 10.0 mi North 11.5 mph - N/A   Clear
11:55 PM 23.2 °F 12.6 °F 12.2 °F 63% 30.73 in 10.0 mi North 10.4 mph - N/A   Clear